Temp
-12 -12 -12 -12 -12 -12 -13 -13 -13 -13 -13 -13 -13 -13 -13 -13 -13 -13 -13 -13 -12 -12 -12 -12 -12 -12 -12 -12 -12 -12 -12 -12 -12 -12 -12 -12 -12 -12 -12 -12 -12 -12
-13 -13 -13 -13 -13 -13 -13 -13 -13 -13 -13 -13 -13 -13 -13 -13 -13 -13 -13 -13 -13 -12 -12 -12 -12 -12 -12 -12 -12 -12 -12 -12 -12 -12 -12 -12 -12 -12 -13 -13 -13 -13
-13 -13 -13 -13 -13 -13 -13 -13 -13 -13 -13 -14 -13 -13 -13 -13 -13 -13 -13 -13 -13 -13 -12 -12 -12 -12 -12 -12 -12 -12 -12 -12 -12 -13 -13 -13 -13 -13 -13 -13 -13 -13
-13 -13 -13 -13 -13 -13 -13 -13 -13 -13 -14 -14 -14 -14 -13 -13 -13 -13 -13 -13 -13 -13 -13 -13 -13 -13 -13 -13 -13 -13 -13 -13 -13 -13 -13 -13 -13 -13 -13 -13 -13 -13
-13 -13 -13 -13 -13 -13 -13 -13 -13 -13 -13 -14 -14 -14 -14 -13 -13 -13 -13 -13 -13 -13 -13 -13 -13 -13 -13 -13 -13 -13 -13 -13 -13 -13 -14 -14 -14 -14 -14 -14 -14 -14
-13 -13 -13 -13 -13 -13 -13 -13 -14 -14 -14 -14 -14 -14 -14 -14 -14 -14 -14 -14 -14 -14 -14 -14 -14 -13 -13 -13 -13 -13 -13 -14 -14 -14 -14 -14 -14 -14 -14 -14 -14 -14
-14 -14 -14 -14 -13 -13 -13 -14 -14 -14 -15 -14 -14 -14 -14 -14 -14 -14 -14 -14 -14 -14 -14 -14 -14 -14 -14 -14 -14 -14 -14 -14 -14 -14 -15 -15 -15 -15 -15 -15 -15 -15
-14 -14 -14 -14 -14 -14 -14 -14 -14 -15 -15 -15 -15 -15 -14 -14 -14 -14 -14 -14 -14 -14 -14 -14 -14 -14 -14 -14 -14 -15 -15 -15 -15 -15 -15 -15 -15 -15 -15 -15 -15 -15
-14 -14 -14 -14 -14 -14 -14 -15 -15 -15 -15 -15 -15 -15 -15 -15 -15 -15 -15 -14 -14 -14 -14 -15 -15 -15 -15 -15 -15 -15 -15 -15 -15 -15 -15 -15 -16 -16 -16 -16 -16 -16
-14 -14 -14 -14 -14 -15 -15 -15 -16 -16 -16 -16 -15 -15 -15 -15 -15 -15 -15 -15 -15 -15 -15 -15 -15 -15 -15 -15 -15 -15 -15 -15 -16 -16 -16 -16 -16 -17 -17 -17 -17 -17
-14 -14 -14 -15 -15 -15 -15 -16 -16 -16 -16 -16 -16 -16 -16 -16 -15 -15 -15 -15 -15 -15 -15 -15 -15 -15 -15 -15 -15 -16 -16 -16 -17 -17 -17 -17 -17 -18 -18 -18 -18 -18
-15 -15 -15 -15 -15 -16 -16 -16 -16 -16 -16 -16 -16 -16 -16 -16 -16 -16 -16 -16 -16 -16 -16 -16 -16 -16 -16 -16 -16 -17 -17 -17 -18 -18 -18 -18 -18 -18 -18 -18 -18 -18
-15 -15 -15 -15 -16 -16 -16 -16 -16 -17 -16 -16 -16 -16 -16 -16 -16 -16 -16 -16 -16 -16 -16 -17 -17 -17 -17 -17 -18 -18 -18 -18 -18 -18 -18 -18 -18 -18 -18 -19 -19 -19
-15 -15 -16 -16 -16 -16 -16 -16 -17 -17 -17 -17 -17 -17 -17 -16 -16 -16 -16 -17 -17 -17 -17 -17 -18 -18 -18 -18 -18 -18 -18 -18 -19 -19 -19 -19 -19 -19 -19 -19 -19 -20
-15 -16 -16 -16 -16 -16 -16 -17 -17 -17 -17 -17 -17 -17 -17 -17 -17 -17 -17 -17 -18 -18 -18 -18 -18 -19 -19 -19 -19 -19 -19 -19 -19 -19 -19 -19 -19 -20 -20 -20 -20 -20
-16 -16 -16 -16 -16 -17 -17 -17 -17 -17 -17 -17 -17 -17 -17 -17 -18 -18 -18 -18 -18 -18 -19 -19 -19 -19 -19 -19 -19 -19 -19 -19 -20 -20 -20 -20 -20 -20 -20 -21 -21 -21
-16 -17 -17 -17 -17 -17 -17 -17 -17 -17 -17 -17 -17 -17 -18 -18 -18 -18 -18 -19 -19 -19 -19 -19 -20 -20 -20 -20 -20 -20 -20 -20 -20 -20 -21 -21 -21 -21 -21 -21 -21 -21
-17 -17 -17 -17 -17 -17 -18 -18 -18 -18 -18 -18 -18 -18 -18 -18 -18 -19 -19 -19 -19 -20 -20 -20 -20 -20 -20 -20 -20 -21 -21 -21 -21 -21 -21 -21 -21 -21 -21 -21 -21 -21
-18 -18 -18 -18 -18 -18 -18 -18 -18 -18 -18 -18 -18 -19 -19 -19 -19 -19 -19 -19 -20 -20 -20 -21 -21 -21 -21 -21 -21 -21 -21 -21 -21 -21 -22 -22 -22 -22 -22 -22 -21 -21
-18 -18 -18 -18 -18 -18 -19 -18 -19 -19 -19 -19 -19 -19 -19 -19 -19 -19 -19 -20 -20 -21 -21 -21 -21 -21 -21 -21 -21 -21 -21 -21 -22 -22 -22 -22 -22 -22 -22 -22 -22 -22
-19 -19 -19 -19 -19 -19 -19 -19 -19 -19 -19 -19 -19 -19 -19 -19 -19 -19 -20 -20 -21 -21 -21 -21 -21 -21 -21 -21 -21 -21 -21 -22 -22 -22 -22 -22 -22 -22 -22 -22 -22 -22
-19 -19 -19 -20 -20 -20 -20 -20 -19 -19 -19 -19 -19 -19 -19 -19 -19 -19 -20 -20 -21 -21 -22 -22 -22 -22 -22 -22 -21 -21 -21 -22 -22 -22 -22 -22 -22 -22 -22 -22 -22 -22
-20 -20 -20 -20 -20 -20 -20 -20 -20 -19 -19 -19 -19 -19 -19 -19 -19 -20 -20 -21 -21 -21 -22 -22 -22 -22 -22 -22 -22 -21 -22 -22 -22 -22 -22 -22 -22 -22 -22 -22 -22 -22
-20 -20 -20 -20 -20 -20 -20 -20 -20 -20 -20 -20 -20 -20 -19 -20 -20 -20 -21 -21 -21 -22 -22 -22 -22 -22 -22 -22 -22 -22 -22 -22 -22 -22 -22 -22 -22 -22 -22 -22 -22 -22
-20 -20 -21 -20 -20 -20 -20 -20 -20 -20 -20 -20 -20 -20 -20 -20 -21 -21 -21 -21 -21 -21 -21 -21 -21 -22 -22 -22 -22 -22 -22 -22 -22 -22 -22 -22 -22 -22 -22 -22 -22 -22
-20 -21 -21 -21 -21 -21 -21 -21 -21 -21 -21 -21 -21 -21 -21 -21 -21 -21 -21 -21 -21 -21 -21 -21 -21 -21 -22 -22 -22 -22 -22 -22 -22 -22 -22 -22 -22 -22 -22 -22 -22 -22
Height
5694 5693 5692 5691 5691 5690 5689 5689 5689 5689 5689 5689 5689 5688 5687 5686 5684 5682 5680 5678 5677 5676 5676 5676 5675 5675 5674 5673 5673 5672 5671 5671 5670 5669 5668 5667 5666 5666 5665 5665 5664 5663
5688 5687 5686 5685 5684 5683 5683 5683 5682 5681 5681 5681 5681 5681 5680 5679 5678 5676 5674 5672 5671 5670 5669 5668 5668 5667 5666 5666 5665 5664 5664 5663 5663 5662 5660 5659 5658 5657 5657 5656 5655 5654
5682 5681 5680 5678 5677 5677 5677 5676 5675 5674 5674 5673 5673 5673 5672 5672 5671 5669 5668 5667 5666 5664 5662 5661 5660 5659 5658 5658 5657 5657 5656 5656 5655 5654 5652 5651 5650 5649 5648 5647 5646 5645
5677 5675 5674 5673 5672 5671 5670 5670 5669 5667 5666 5665 5665 5665 5664 5664 5663 5662 5661 5661 5660 5658 5656 5655 5653 5652 5651 5650 5650 5649 5649 5648 5647 5646 5644 5643 5642 5641 5639 5638 5636 5635
5670 5669 5668 5667 5665 5664 5664 5663 5662 5660 5659 5658 5657 5656 5656 5655 5654 5654 5653 5653 5653 5651 5650 5648 5646 5645 5644 5643 5642 5641 5641 5640 5639 5638 5636 5634 5633 5631 5630 5628 5626 5624
5662 5661 5661 5659 5658 5657 5657 5656 5654 5654 5653 5651 5650 5648 5648 5647 5646 5645 5645 5645 5644 5643 5642 5641 5639 5638 5637 5636 5635 5634 5633 5632 5631 5629 5627 5625 5624 5622 5620 5618 5616 5614
5653 5653 5653 5651 5650 5650 5650 5648 5647 5646 5645 5643 5642 5641 5640 5639 5637 5637 5636 5636 5635 5635 5634 5633 5632 5630 5629 5628 5627 5626 5625 5624 5622 5620 5618 5616 5614 5612 5611 5608 5606 5604
5645 5645 5644 5643 5643 5642 5642 5640 5639 5638 5636 5635 5634 5632 5632 5631 5630 5629 5628 5628 5628 5627 5626 5625 5623 5622 5621 5620 5619 5618 5617 5615 5614 5611 5609 5607 5605 5603 5601 5599 5597 5594
5636 5637 5636 5635 5635 5634 5634 5633 5631 5630 5629 5628 5626 5624 5624 5623 5622 5622 5621 5620 5620 5618 5617 5616 5615 5614 5613 5612 5611 5609 5608 5607 5605 5603 5600 5598 5596 5594 5592 5590 5587 5585
5628 5629 5628 5627 5627 5626 5625 5624 5622 5622 5621 5620 5619 5617 5617 5616 5615 5614 5613 5612 5611 5610 5609 5607 5606 5605 5604 5603 5602 5600 5599 5598 5596 5594 5591 5589 5586 5584 5582 5580 5578 5576
5619 5619 5618 5618 5618 5617 5616 5614 5613 5614 5613 5612 5611 5610 5609 5608 5607 5606 5605 5604 5603 5602 5600 5599 5598 5597 5595 5594 5592 5591 5590 5588 5587 5585 5582 5579 5577 5574 5572 5570 5568 5566
5610 5609 5609 5609 5608 5607 5605 5605 5605 5605 5605 5603 5603 5602 5601 5600 5599 5597 5596 5595 5594 5593 5592 5591 5589 5588 5586 5585 5583 5582 5581 5579 5577 5575 5572 5569 5567 5565 5563 5561 5559 5557
5601 5600 5599 5599 5598 5597 5596 5596 5597 5597 5596 5595 5594 5593 5592 5591 5590 5589 5587 5587 5586 5585 5584 5582 5580 5579 5577 5575 5574 5573 5571 5570 5568 5566 5563 5560 5557 5555 5553 5551 5549 5547
5592 5591 5590 5589 5588 5587 5587 5588 5588 5588 5587 5586 5586 5585 5584 5583 5581 5580 5579 5578 5577 5576 5574 5573 5571 5569 5568 5566 5565 5564 5562 5561 5559 5556 5554 5551 5548 5546 5544 5542 5540 5538
5582 5581 5581 5580 5579 5579 5579 5579 5579 5579 5578 5578 5577 5576 5574 5573 5572 5571 5570 5569 5568 5567 5565 5563 5562 5560 5559 5557 5556 5555 5553 5552 5550 5547 5545 5543 5540 5538 5536 5533 5532 5530
5572 5572 5571 5571 5571 5571 5570 5570 5570 5569 5569 5568 5567 5565 5564 5563 5562 5561 5561 5560 5558 5557 5555 5554 5553 5551 5550 5548 5547 5546 5544 5542 5541 5539 5536 5534 5532 5530 5528 5525 5523 5522
5563 5562 5562 5562 5563 5563 5562 5562 5561 5560 5559 5558 5557 5555 5554 5553 5552 5552 5551 5550 5548 5547 5546 5544 5543 5541 5540 5539 5538 5537 5536 5534 5532 5531 5528 5526 5524 5522 5519 5517 5515 5513
5552 5551 5552 5553 5554 5554 5554 5553 5552 5551 5550 5548 5547 5545 5544 5543 5543 5542 5541 5540 5539 5537 5536 5535 5533 5532 5531 5531 5530 5528 5528 5526 5524 5522 5520 5518 5516 5513 5511 5508 5506 5504
5542 5541 5542 5543 5544 5544 5544 5543 5543 5542 5541 5539 5537 5536 5535 5534 5533 5533 5531 5530 5529 5528 5526 5525 5524 5523 5523 5522 5521 5520 5519 5518 5516 5514 5511 5509 5507 5505 5502 5500 5497 5495
5532 5532 5532 5533 5533 5533 5533 5533 5533 5532 5531 5530 5528 5527 5526 5525 5524 5523 5521 5520 5519 5517 5516 5516 5515 5515 5514 5514 5513 5512 5511 5509 5508 5505 5503 5501 5498 5496 5494 5491 5489 5486
5522 5522 5522 5522 5522 5522 5522 5523 5523 5522 5522 5521 5520 5518 5517 5516 5515 5514 5512 5511 5509 5508 5507 5507 5507 5506 5506 5505 5504 5504 5503 5501 5498 5496 5494 5492 5490 5487 5485 5482 5480 5477
5513 5512 5512 5513 5512 5512 5513 5513 5513 5513 5513 5512 5510 5509 5508 5508 5506 5505 5504 5502 5500 5499 5499 5498 5498 5498 5497 5497 5496 5495 5495 5493 5490 5487 5485 5484 5481 5478 5476 5473 5470 5468
5503 5503 5503 5503 5503 5503 5503 5504 5504 5504 5504 5502 5501 5500 5500 5498 5497 5496 5495 5493 5492 5491 5491 5490 5489 5489 5489 5488 5487 5486 5486 5485 5482 5479 5477 5475 5472 5469 5466 5463 5460 5458
5493 5493 5493 5494 5494 5494 5494 5495 5495 5495 5494 5493 5492 5491 5490 5489 5488 5487 5486 5485 5483 5482 5482 5481 5481 5481 5480 5479 5478 5477 5477 5476 5474 5472 5469 5466 5463 5460 5457 5454 5451 5449
5482 5483 5483 5484 5484 5484 5485 5486 5486 5485 5484 5483 5482 5482 5481 5480 5479 5478 5477 5476 5475 5474 5473 5473 5472 5472 5471 5469 5468 5468 5467 5466 5465 5463 5461 5458 5455 5452 5449 5446 5442 5440
5472 5472 5473 5473 5473 5473 5474 5475 5476 5475 5474 5473 5472 5472 5472 5471 5470 5469 5468 5467 5466 5465 5465 5464 5463 5462 5461 5460 5458 5458 5458 5457 5455 5454 5451 5449 5447 5443 5440 5437 5434 5431
Wind_Speed
52 51 51 52 53 53 54 54 53 52 50 48 48 49 51 52 53 55 56 59 61 63 63 62 61 60 59 59 58 58 57 56 55 55 56 56 57 59 60 61 62 62
52 53 53 54 55 55 56 56 55 53 51 49 48 49 50 51 53 56 57 58 60 62 63 63 62 61 60 59 59 59 59 59 58 59 59 60 61 61 61 61 61 61
52 53 54 55 56 57 56 55 54 53 51 50 49 49 50 51 52 54 56 58 58 59 61 62 62 61 60 59 59 60 60 61 61 60 60 61 60 60 60 60 61 62
52 53 54 55 56 56 55 55 54 54 53 53 52 51 51 51 53 54 55 55 56 58 59 60 60 59 59 58 59 59 60 60 59 58 58 59 59 59 60 61 62 63
51 52 53 54 55 55 55 55 55 56 57 57 56 55 52 51 52 53 53 53 53 54 56 57 57 56 56 55 56 57 58 58 58 58 58 59 60 61 62 63 64 66
52 53 54 54 55 56 56 56 56 57 58 59 59 57 54 51 51 52 51 51 50 51 52 53 54 54 54 55 56 58 59 60 60 60 61 62 62 63 64 65 66 68
55 55 55 56 56 56 57 58 58 57 58 59 59 56 53 52 52 52 51 51 50 50 50 52 54 55 56 57 59 61 62 62 62 62 63 64 64 65 66 67 68 69
57 56 56 57 58 59 59 60 59 59 60 59 57 55 54 53 52 52 52 51 50 51 51 53 55 56 57 59 61 62 62 63 63 64 65 65 65 66 67 68 69 70
59 59 59 59 60 61 61 61 61 61 60 58 56 56 54 53 52 52 51 51 51 51 52 54 56 57 58 58 59 60 61 62 63 64 64 64 65 66 66 67 68 68
61 61 62 62 61 61 60 61 62 61 60 58 57 56 53 51 51 51 50 51 51 53 55 57 59 60 60 59 59 61 63 63 64 63 63 63 64 64 65 65 65 65
63 63 64 63 61 59 59 61 62 61 60 59 57 54 52 51 51 51 52 53 55 57 58 59 61 61 61 61 62 64 65 64 63 61 61 62 63 64 64 64 65 66
67 66 63 61 58 58 59 60 60 59 59 58 56 54 53 53 54 55 57 59 59 59 59 60 61 62 62 63 63 64 64 63 61 61 61 62 64 65 66 67 68 68
66 63 60 58 58 59 60 60 58 57 56 55 55 56 57 57 59 60 62 62 61 60 60 61 62 62 61 61 62 63 63 63 62 62 63 65 66 67 68 69 69 68
62 60 58 58 59 60 61 59 57 56 55 55 55 57 60 62 63 64 64 62 61 60 61 61 61 60 60 60 62 64 64 64 65 66 66 68 69 69 69 69 67 66
59 59 58 59 59 60 60 58 57 57 57 58 58 59 62 64 65 65 63 61 61 61 61 61 61 61 62 63 65 65 66 66 66 67 67 67 67 67 66 66 65 64
59 58 58 58 57 57 57 57 57 58 59 60 61 61 62 64 64 64 62 61 61 61 61 60 60 61 62 63 64 64 64 64 63 63 63 63 63 62 63 63 63 64
58 58 57 56 55 55 54 55 56 58 59 60 61 61 62 64 64 63 61 60 60 60 59 59 58 58 59 59 59 59 59 59 59 59 59 59 59 60 61 61 62 63
57 57 56 55 54 53 53 54 56 57 58 59 60 62 63 64 64 63 60 59 59 58 57 56 55 56 56 56 56 55 55 56 56 57 57 58 59 60 61 62 63 64
56 56 55 54 52 52 54 55 57 59 60 61 62 63 64 65 64 63 61 60 58 56 54 53 53 53 54 54 55 55 55 55 55 55 56 57 59 60 62 63 64 65
57 56 55 54 55 55 56 57 58 59 61 63 64 65 65 66 66 64 62 59 56 54 53 52 52 53 54 55 55 56 55 54 53 53 55 56 58 59 59 60 61 62
57 56 56 57 58 57 57 57 58 60 62 64 65 67 67 67 67 65 60 57 54 52 52 52 52 53 55 56 56 57 56 54 54 55 57 58 59 59 59 60 60 60
57 57 57 57 58 59 58 58 58 60 63 65 67 68 68 69 68 63 58 56 53 51 51 51 52 53 55 56 58 59 58 56 56 58 60 61 62 63 63 63 63 63
59 59 59 58 59 60 60 60 60 61 63 65 66 67 69 70 67 61 58 57 54 51 51 53 54 55 56 58 60 61 61 60 60 61 62 63 65 66 66 66 66 66
63 62 61 61 61 61 62 61 61 61 62 63 65 66 69 71 67 61 59 59 55 53 54 56 57 58 59 61 62 64 64 64 63 64 65 66 66 67 67 67 67 68
65 63 63 64 64 63 63 62 62 62 63 64 65 65 67 69 66 61 60 60 57 56 58 60 61 62 64 63 64 66 67 66 66 66 66 66 66 66 67 67 68 70
65 63 63 65 65 65 64 63 63 63 63 64 64 64 64 66 65 64 64 63 62 61 62 64 65 66 66 64 64 65 65 66 67 68 69 68 68 68 69 70 71 73
Wind_Direction
274 275 275 275 276 277 278 279 280 280 280 277 275 273 273 274 275 276 277 277 278 279 279 279 278 278 278 279 279 279 280 280 281 282 282 282 283 283 283 282 282 281
272 272 273 274 275 276 277 279 280 281 281 280 276 274 273 273 272 272 273 275 276 277 278 278 278 278 278 278 279 279 279 279 280 280 281 281 281 280 280 280 280 281
272 272 273 274 275 276 277 279 281 282 281 280 277 274 272 270 270 269 270 271 273 275 276 277 277 277 277 277 278 277 277 278 278 279 279 279 279 279 279 280 281 282
271 271 271 272 274 277 279 281 282 282 281 279 278 276 273 271 269 269 269 269 270 272 273 274 275 276 276 276 276 276 277 277 277 278 278 278 279 279 280 281 281 282
269 269 270 272 275 277 279 280 280 280 279 279 279 277 275 273 271 271 271 271 270 270 271 272 274 275 275 276 277 277 277 277 277 277 278 279 280 280 281 282 282 282
268 269 271 273 275 277 278 279 278 278 278 278 277 276 275 274 273 273 273 273 272 271 271 271 273 274 275 277 277 278 278 278 278 279 279 280 281 281 282 282 283 283
267 269 270 271 273 275 277 277 278 278 278 276 275 273 273 273 273 273 273 272 272 272 272 272 273 275 276 278 278 279 279 279 279 280 280 281 281 282 283 283 284 284
268 269 270 271 273 274 275 275 276 277 276 274 273 272 271 272 272 272 272 272 273 274 275 276 276 278 278 279 279 279 279 279 279 279 280 281 282 283 284 284 285 285
270 271 272 272 273 274 274 274 274 274 273 272 272 272 272 271 270 271 272 274 276 278 279 280 280 280 280 280 280 281 281 281 281 282 282 283 283 283 284 284 284 284
273 273 273 273 274 275 274 272 271 272 271 271 273 273 271 270 270 272 274 276 279 280 281 281 281 281 281 282 283 284 284 284 284 284 284 284 284 283 283 283 283 284
276 276 275 275 276 276 272 269 269 270 269 271 273 271 269 270 272 274 276 279 281 281 281 280 280 280 281 283 284 284 284 284 284 284 284 283 283 282 283 283 284 284
277 277 276 276 276 274 270 268 268 268 269 272 272 269 269 272 275 277 279 281 281 281 280 279 279 281 282 283 283 284 284 284 283 283 282 282 282 283 284 284 285 286
276 276 276 276 274 271 269 268 266 267 270 273 272 269 271 274 276 278 280 280 279 278 278 279 280 281 282 283 283 283 282 282 282 281 281 282 283 284 285 286 287 287
275 274 273 273 271 270 269 267 265 266 270 273 273 272 272 274 275 276 278 278 278 278 279 280 280 281 281 282 282 282 282 282 282 282 283 283 284 286 287 287 288 288
273 272 270 269 268 268 267 265 264 266 270 273 274 273 272 273 274 275 277 278 278 279 280 280 280 281 282 282 283 283 283 283 283 284 285 285 286 287 288 288 288 288
269 268 266 265 265 265 264 264 265 268 271 273 274 273 273 273 273 275 277 278 279 279 279 280 281 282 283 283 283 283 284 284 285 285 286 287 287 288 288 288 288 288
264 263 261 261 262 263 264 266 268 271 273 274 274 274 273 273 273 274 276 278 279 279 280 282 283 283 282 282 282 282 283 284 285 286 286 287 287 288 289 290 290 292
259 258 259 259 261 264 267 270 271 273 273 274 274 273 272 272 272 274 276 278 278 280 281 281 281 280 280 280 281 281 282 283 284 285 286 287 289 290 291 292 293 294
255 256 257 259 263 268 271 273 274 274 273 273 273 272 272 272 273 274 276 277 278 279 280 279 278 278 278 279 279 279 281 281 283 285 288 289 291 292 293 293 293 295
256 257 260 263 268 272 274 274 275 274 274 273 273 273 273 273 273 273 275 276 277 278 278 278 278 277 277 277 278 278 279 279 282 286 289 291 293 294 295 296 296 298
258 261 265 269 273 275 276 276 276 276 275 274 273 273 273 273 273 273 275 275 275 276 277 278 278 277 276 277 277 277 276 277 281 285 288 291 293 294 296 298 300 302
260 264 268 271 273 275 277 278 278 276 274 274 273 274 274 273 273 274 274 273 273 275 278 278 279 279 278 278 277 276 274 275 280 285 288 290 292 294 296 299 301 303
261 264 267 270 272 276 278 278 278 276 275 275 275 275 274 273 273 274 273 271 272 275 277 278 280 281 280 279 278 276 274 274 279 285 288 290 291 294 296 299 301 303
264 265 266 270 273 275 276 276 276 276 275 276 276 276 276 275 275 275 273 270 272 275 276 278 280 281 281 279 277 275 273 274 279 284 287 289 291 293 295 298 301 303
268 266 267 270 273 273 273 274 274 275 275 276 276 277 277 278 278 277 273 271 272 274 275 277 279 280 281 280 277 275 274 275 279 283 286 288 290 292 294 297 300 302
268 267 267 270 271 271 272 273 273 274 275 275 275 276 277 278 279 277 274 271 271 272 273 276 278 280 281 279 276 276 277 279 281 283 284 286 289 291 294 297 299 301